Weather History for Valparaiso, IN

Change the Weather History Date:

Friday, February 8, 2013

  Actual Average Record
Temperature  
Mean Temperature 32 °F 26 °F  
Max Temperature 34 °F 33 °F 50 °F (2001)
Min Temperature 29 °F 18 °F -8 °F (2007)
Degree Days  
Heating Degree Days 33 39  
Month to date heating degree days 329 321  
Since 1 July heating degree days 3690 4006  
Cooling Degree Days 0 0  
Month to date cooling degree days 0 0  
Year to date cooling degree days 0 0  
Moisture  
Dew Point 27 °F    
Average Humidity 87    
Maximum Humidity 96    
Minimum Humidity 72    
Precipitation  
Precipitation T in 0.05 in 0.42 in (2001)
Month to date precipitation 0.24 0.37  
Year to date precipitation 2.53 2.12  
Sea Level Pressure  
Sea Level Pressure 30.18 in    
Wind  
Wind Speed 11 mph (NNW)    
Max Wind Speed 23 mph    
Max Gust Speed 32 mph    
Visibility 7 miles    
Events Snow    
T = Trace of Precipitation, MM = Missing Value Source: NWS Daily Summary

Daily Weather History Graph

Daily Weather History Graph

Search for Another Location

Airport:

Trip Planner

Search our weather history database for the weather conditions in past years. The results will help you decide how hot, cold, wet, or windy it might be!

Date:

Astronomy

Feb. 08, 2013 Rise Set
Actual Time 6:51 AM CST 5:13 PM CST
Civil Twilight 6:22 AM CST 5:42 PM CST
Nautical Twilight 5:50 AM CST 6:14 PM CST
Astronomical Twilight 5:17 AM CST 6:47 PM CST
Moon 5:20 AM CST (2/8) 3:45 PM CST (2/8)
Length of Visible Light 11h 19m
Length of Day
10h 21m
Waning Crescent, 3% of the Moon is Illuminated
Feb 8
Waning Crescent
Feb 10
New
Feb 17
First Quarter
Feb 25
Full
Mar 4
Last Quarter

Hourly Weather History & Observations

Time (CST) Temp. Windchill Dew Point Humidity Pressure Visibility Wind Dir Wind Speed Gust Speed Precip Events Conditions
12:53 AM 33.1 °F 23.0 °F 32.0 °F 96% 29.90 in 6.0 mi NW 15.0 mph 21.9 mph N/A   Overcast
1:43 AM 33.8 °F 23.5 °F 30.2 °F 87% 29.90 in 10.0 mi NNW 16.1 mph 24.2 mph N/A   Overcast
1:53 AM 33.1 °F 22.6 °F 30.9 °F 92% 29.92 in 10.0 mi NNW 16.1 mph 24.2 mph N/A   Overcast
2:11 AM 32.0 °F 22.5 °F 30.2 °F 93% 29.91 in 2.0 mi NNW 12.7 mph 24.2 mph 0.00 in Snow Light Snow
2:21 AM 32.0 °F 22.5 °F 30.2 °F 93% 29.91 in 4.0 mi NNW 12.7 mph 23.0 mph 0.00 in Snow Light Snow
2:46 AM 32.0 °F 23.6 °F 30.2 °F 93% 29.93 in 2.0 mi NNW 10.4 mph 23.0 mph 0.00 in Snow Light Snow
2:53 AM 32.0 °F 22.1 °F 30.9 °F 96% 29.95 in 3.0 mi NW 13.8 mph 20.7 mph 0.00 in Snow Light Snow
3:53 AM 30.9 °F 20.2 °F 28.9 °F 92% 29.99 in 6.0 mi NW 15.0 mph 24.2 mph 0.00 in Snow Light Snow
4:31 AM 30.2 °F 18.9 °F 26.6 °F 86% 29.99 in 2.0 mi NW 16.1 mph 25.3 mph 0.00 in Snow Light Snow
4:53 AM 30.0 °F 18.3 °F 28.0 °F 92% 30.03 in 2.5 mi NW 17.3 mph 27.6 mph 0.00 in Snow Light Snow
5:07 AM 30.2 °F 18.9 °F 28.4 °F 93% 30.01 in 2.0 mi NNW 16.1 mph 24.2 mph 0.00 in Snow Light Snow
5:19 AM 30.2 °F 17.4 °F 26.6 °F 86% 30.01 in 4.0 mi NNW 20.7 mph 32.2 mph 0.00 in Snow Light Snow
5:53 AM 30.9 °F 19.8 °F 28.0 °F 89% 30.06 in 8.0 mi NNW 16.1 mph 26.5 mph 0.00 in   Overcast
6:53 AM 32.0 °F 22.5 °F 30.0 °F 92% 30.09 in 10.0 mi NNW 12.7 mph 25.3 mph N/A   Overcast
7:07 AM 33.8 °F 24.8 °F 28.4 °F 81% 30.08 in 10.0 mi North 12.7 mph 19.6 mph N/A   Overcast
7:53 AM 33.1 °F 24.9 °F 27.0 °F 78% 30.13 in 10.0 mi North 10.4 mph 23.0 mph N/A   Overcast
8:53 AM 33.1 °F 25.5 °F 26.1 °F 75% 30.17 in 10.0 mi North 9.2 mph 21.9 mph N/A   Overcast
9:53 AM 33.1 °F 24.4 °F 26.1 °F 75% 30.20 in 10.0 mi North 11.5 mph 21.9 mph N/A   Overcast
10:53 AM 33.1 °F 23.4 °F 26.1 °F 75% 30.23 in 10.0 mi North 13.8 mph 23.0 mph N/A   Overcast
11:53 AM 33.1 °F 22.6 °F 26.1 °F 75% 30.24 in 10.0 mi North 16.1 mph 21.9 mph N/A   Overcast
12:23 PM 33.8 °F 24.8 °F 26.6 °F 75% 30.22 in 10.0 mi North 12.7 mph 18.4 mph N/A   Overcast
12:53 PM 33.1 °F 23.9 °F 25.0 °F 72% 30.25 in 10.0 mi North 12.7 mph 18.4 mph N/A   Overcast
1:41 PM 30.2 °F 20.8 °F 28.4 °F 93% 30.24 in 9.0 mi NW 11.5 mph - N/A   Overcast
1:53 PM 30.9 °F 22.2 °F 28.0 °F 89% 30.27 in 7.0 mi NNW 10.4 mph - N/A   Overcast
2:00 PM 30.2 °F 20.8 °F 28.4 °F 93% 30.24 in 5.0 mi NNW 11.5 mph - 0.00 in Snow Light Snow
2:07 PM 30.2 °F 21.9 °F 28.4 °F 93% 30.25 in 5.0 mi NW 9.2 mph - 0.00 in Snow Light Snow
2:17 PM 30.2 °F 19.3 °F 28.4 °F 93% 30.25 in 1.8 mi NW 15.0 mph 18.4 mph 0.00 in Snow Light Snow
2:43 PM 30.2 °F 20.2 °F 28.4 °F 93% 30.25 in 0.8 mi NNW 12.7 mph - 0.00 in Snow Light Snow
2:53 PM 30.0 °F 20.0 °F 27.0 °F 88% 30.29 in 1.2 mi NNW 12.7 mph 20.7 mph 0.00 in Snow Light Snow
3:04 PM 30.2 °F 19.8 °F 26.6 °F 86% 30.26 in 2.5 mi NNW 13.8 mph 18.4 mph 0.00 in Snow Light Snow
3:12 PM 30.2 °F 20.8 °F 26.6 °F 86% 30.27 in 5.0 mi NNW 11.5 mph 20.7 mph 0.00 in Snow Light Snow
3:53 PM 30.0 °F 21.1 °F 27.0 °F 88% 30.31 in 10.0 mi NNW 10.4 mph 20.7 mph 0.00 in   Overcast
4:53 PM 30.0 °F 20.0 °F 26.1 °F 85% 30.33 in 10.0 mi NW 12.7 mph 21.9 mph N/A   Overcast
5:25 PM 28.4 °F 19.1 °F 26.6 °F 93% 30.31 in 10.0 mi NNW 10.4 mph - N/A   Overcast
6:19 PM 28.4 °F 19.7 °F 24.8 °F 86% 30.34 in 10.0 mi WNW 9.2 mph - N/A   Overcast
6:28 PM 28.4 °F 22.2 °F 24.8 °F 86% 30.34 in 10.0 mi NW 5.8 mph - N/A   Overcast
6:38 PM 28.4 °F 20.4 °F 24.8 °F 86% 30.34 in 10.0 mi NW 8.1 mph - N/A   Overcast
6:53 PM 28.9 °F 21.9 °F 25.0 °F 85% 30.36 in 10.0 mi NW 6.9 mph - N/A   Overcast
7:53 PM 28.9 °F 22.8 °F 25.0 °F 85% 30.37 in 10.0 mi WNW 5.8 mph - N/A   Overcast
8:53 PM 28.9 °F 21.1 °F 25.0 °F 85% 30.38 in 10.0 mi WNW 8.1 mph - N/A   Overcast
9:53 PM 28.9 °F 21.9 °F 25.0 °F 85% 30.39 in 10.0 mi WNW 6.9 mph - N/A   Overcast
10:53 PM 28.9 °F 22.8 °F 25.0 °F 85% 30.38 in 10.0 mi WNW 5.8 mph - N/A   Overcast
11:53 PM 28.9 °F 25.2 °F 25.0 °F 85% 30.39 in 10.0 mi WNW 3.5 mph - N/A   Overcast